Date String (YYYY-MM-DD hh:mm:ss) UTC,Instrument flags,Ambient pressure (hPa),Sample flow (lpm),Bypass flow (lpm),Sample temperature (°C),Ambient temperature (°C),ASC tube jacket temperature (°C),LED temperature (°C),Box temperature (°C),Sample RH (%),Span deviation,Mass concentration (μg/m³),Mass concentration (μg/m³),Mass concentration (μg/m³)
DateTimeUTC,F1_M11,P_M11,Q1_M11,Q2_M11,T1_M11,T2_M11,T3_M11,T4_M11,T5_M11,U1_M11,ZSPAN_M11,X2_M11,X0_M11,X1_M11
2021-12-31 03:00:00,,0808.5,5.02,0.00,22.5,22.0,00.0,31.6,24.2,08.7,0000.0,0000.21,0001.16,0000.10
2021-12-31 03:01:00,,0808.4,5.00,0.00,22.5,22.0,00.0,31.6,24.1,08.8,0000.0,0000.22,0001.28,0000.11
2021-12-31 03:02:00,,0808.4,5.00,0.00,22.5,21.8,00.0,31.5,24.1,09.1,0000.0,0000.22,0001.31,0000.10
2021-12-31 03:03:00,,0808.4,4.99,0.00,22.4,21.8,00.0,31.5,24.0,09.0,0000.0,0000.25,0001.44,0000.10
2021-12-31 03:04:00,,0808.3,5.01,0.00,22.4,21.7,00.0,31.5,24.0,09.1,0000.0,0000.25,0001.46,0000.10
2021-12-31 03:05:00,,0808.2,5.00,0.00,22.4,21.7,00.0,31.5,24.0,09.2,0000.0,0000.25,0001.46,0000.10
2021-12-31 03:06:00,,0808.2,5.01,0.00,22.4,21.7,00.0,31.5,24.0,09.2,0000.0,0000.27,0001.53,0000.10
2021-12-31 03:07:00,,0808.1,4.98,0.00,22.3,21.7,00.0,31.5,24.0,09.1,0000.0,0000.29,0001.59,0000.10
2021-12-31 03:08:00,,0808.2,5.01,0.00,22.3,21.7,00.0,31.5,23.9,09.0,0000.0,0000.29,0001.60,0000.10
2021-12-31 03:09:00,,0808.4,5.00,0.00,22.3,21.6,00.0,31.4,23.9,08.6,0000.0,0000.27,0001.57,0000.10
2021-12-31 03:10:00,,0808.4,4.99,0.00,22.3,21.6,00.0,31.4,23.9,08.5,0000.0,0000.27,0001.48,0000.10
2021-12-31 03:11:00,,0808.4,5.01,0.00,22.3,21.6,00.0,31.4,23.9,08.6,0000.0,0000.25,0000.76,0000.10
2021-12-31 03:12:00,,0808.4,5.00,0.00,22.3,21.6,00.0,31.4,23.9,08.8,0000.0,0000.25,0000.75,0000.10
2021-12-31 03:13:00,,0808.6,5.00,0.00,22.2,21.5,00.0,31.4,23.9,08.8,0000.0,0000.26,0000.76,0000.09
2021-12-31 03:14:00,,0808.6,5.00,0.00,22.2,21.2,00.0,31.4,23.7,09.0,0000.0,0000.24,0000.65,0000.10
2021-12-31 03:15:00,,0808.6,5.00,0.00,22.1,21.1,00.0,31.3,23.6,09.2,0000.0,0000.24,0000.69,0000.09
2021-12-31 03:16:00,,0808.5,5.00,0.00,22.0,21.1,00.0,31.3,23.5,09.2,0000.0,0000.22,0000.63,0000.09
2021-12-31 03:17:00,,0808.4,4.99,0.00,22.0,21.1,00.0,31.3,23.5,09.1,0000.0,0000.22,0000.58,0000.09
2021-12-31 03:18:00,,0808.4,5.01,0.00,22.0,21.0,00.0,31.2,23.5,09.2,0000.0,0000.20,0000.49,0000.09
2021-12-31 03:19:00,,0808.4,5.00,0.00,21.9,21.0,00.0,31.2,23.5,09.1,0000.0,0000.22,0000.52,0000.10
2021-12-31 03:20:00,,0808.4,4.99,0.00,21.9,21.0,00.0,31.2,23.5,09.1,0000.0,0000.23,0000.54,0000.10
2021-12-31 03:21:00,,0808.5,5.00,0.00,21.9,21.1,00.0,31.2,23.5,09.0,0000.0,0000.25,0000.60,0000.10
2021-12-31 03:22:00,,0808.5,5.00,0.00,21.9,21.1,00.0,31.1,23.5,09.0,0000.0,0000.27,0000.72,0000.10
2021-12-31 03:23:00,,0808.5,5.01,0.00,21.9,21.1,00.0,31.1,23.4,08.6,0000.0,0000.29,0000.82,0000.11
2021-12-31 03:24:00,,0808.6,4.99,0.00,21.8,21.1,00.0,31.1,23.4,08.4,0000.0,0000.32,0001.78,0000.12
2021-12-31 03:25:00,,0808.6,5.01,0.00,21.8,21.2,00.0,31.1,23.4,08.3,0000.0,0000.34,0001.80,0000.14
2021-12-31 03:26:00,,0808.6,5.00,0.00,22.0,22.0,00.0,31.1,23.7,08.3,0000.0,0000.35,0001.76,0000.15
2021-12-31 03:27:00,,0808.6,4.99,0.00,22.1,22.8,00.0,31.1,24.1,08.3,0000.0,0000.37,0002.71,0000.16
2021-12-31 03:28:00,,0808.5,5.00,0.00,22.2,22.9,00.0,31.2,24.2,08.3,0000.0,0000.36,0003.14,0000.17
2021-12-31 03:29:00,,0808.5,4.99,0.00,22.3,22.7,00.0,31.2,24.2,08.3,0000.0,0000.38,0003.15,0000.18
2021-12-31 03:30:00,,0808.5,5.01,0.00,22.3,22.5,00.0,31.2,24.1,08.3,0000.0,0000.43,0003.26,0000.19
2021-12-31 03:31:00,,0808.5,5.01,0.00,22.3,22.2,00.0,31.2,24.0,08.3,0000.0,0000.42,0003.24,0000.19
2021-12-31 03:32:00,,0808.4,4.99,0.00,22.3,22.1,00.0,31.2,24.0,08.3,0000.0,0000.41,0003.23,0000.19
2021-12-31 03:33:00,,0808.6,5.01,0.00,22.3,22.0,00.0,31.2,24.0,08.2,0000.0,0000.41,0003.18,0000.20
2021-12-31 03:34:00,,0808.6,4.98,0.00,22.2,22.0,00.0,31.2,24.0,08.2,0000.0,0000.41,0003.23,0000.20
2021-12-31 03:35:00,,0808.5,5.00,0.00,22.3,21.9,00.0,31.2,24.0,08.3,0000.0,0000.39,0002.53,0000.20
2021-12-31 03:36:00,,0808.5,5.01,0.00,22.2,21.8,00.0,31.2,24.0,08.2,0000.0,0000.39,0003.00,0000.19
2021-12-31 03:37:00,,0808.5,4.99,0.00,22.2,21.8,00.0,31.2,23.9,08.4,0000.0,0000.39,0003.83,0000.18
2021-12-31 03:38:00,,0808.5,5.01,0.00,22.2,21.7,00.0,31.2,23.9,08.4,0000.0,0000.38,0003.27,0000.17
2021-12-31 03:39:00,,0808.4,4.99,0.00,22.2,21.6,00.0,31.2,23.8,08.3,0000.0,0000.38,0002.48,0000.17
2021-12-31 03:40:00,,0808.4,5.01,0.00,22.1,21.5,00.0,31.2,23.7,08.3,0000.0,0000.38,0002.60,0000.16
2021-12-31 03:41:00,,0808.5,4.99,0.00,22.1,21.5,00.0,31.2,23.7,08.3,0000.0,0000.34,0002.57,0000.16
2021-12-31 03:42:00,,0808.4,5.00,0.00,22.1,21.4,00.0,31.2,23.6,08.3,0000.0,0000.34,0002.58,0000.16
2021-12-31 03:43:00,,0808.5,5.00,0.00,22.0,21.3,00.0,31.2,23.6,08.2,0000.0,0000.33,0002.56,0000.17
2021-12-31 03:44:00,,0808.3,5.00,0.00,22.0,21.3,00.0,31.2,23.6,08.3,0000.0,0000.33,0002.52,0000.17
2021-12-31 03:45:00,,0808.3,5.00,0.00,22.0,21.3,00.0,31.2,23.6,08.4,0000.0,0000.32,0002.45,0000.16
2021-12-31 03:46:00,,0808.3,4.99,0.00,22.0,21.3,00.0,31.1,23.6,08.4,0000.0,0000.31,0002.21,0000.15
2021-12-31 03:47:00,,0808.5,5.01,0.00,22.0,21.2,00.0,31.1,23.6,08.4,0000.0,0000.31,0001.41,0000.15
2021-12-31 03:48:00,,0808.3,5.00,0.00,21.9,21.1,00.0,31.1,23.5,08.4,0000.0,0000.30,0000.74,0000.15
2021-12-31 03:49:00,,0808.2,5.01,0.00,21.9,21.1,00.0,31.1,23.5,08.4,0000.0,0000.31,0000.70,0000.15
2021-12-31 03:50:00,,0808.3,4.99,0.00,21.9,21.1,00.0,31.1,23.5,08.4,0000.0,0000.32,0000.73,0000.15
2021-12-31 03:51:00,,0808.3,5.00,0.00,21.9,21.2,00.0,31.0,23.5,08.3,0000.0,0000.31,0000.61,0000.15
2021-12-31 03:52:00,,0808.3,4.99,0.00,21.9,21.2,00.0,31.0,23.5,08.2,0000.0,0000.37,0000.73,0000.16
2021-12-31 03:53:00,,0808.3,5.02,0.00,21.9,21.2,00.0,31.0,23.5,08.2,0000.0,0000.43,0000.93,0000.18
2021-12-31 03:54:00,,0808.4,5.00,0.00,21.9,21.2,00.0,31.0,23.5,08.1,0000.0,0000.46,0001.03,0000.20
2021-12-31 03:55:00,,0808.5,5.01,0.00,21.9,21.1,00.0,31.0,23.5,08.2,0000.0,0000.51,0001.10,0000.22
2021-12-31 03:56:00,,0808.5,5.00,0.00,21.9,21.4,00.0,31.0,23.6,08.2,0000.0,0000.52,0001.15,0000.24
2021-12-31 03:57:00,,0808.5,4.99,0.00,22.0,22.2,00.0,31.1,23.9,08.1,0000.0,0000.55,0001.41,0000.26
2021-12-31 03:58:00,,0808.4,5.00,0.00,22.2,23.0,00.0,31.1,24.2,08.2,0000.0,0000.56,0001.54,0000.27
2021-12-31 03:59:00,,0808.4,5.00,0.00,22.3,23.1,00.0,31.1,24.3,08.2,0000.0,0000.59,0001.59,0000.28
